| time (UTC) | temp F | wind direction | speed MPH | gust MPH | rain 1hr in | rain 24hr in | rain mn in | humidity % | barometer mb |
| 20260504204555 | 80 | 0 | 0.0 | 1.0 | 0.00 | 0.00 | 0.00 | 38 | 1014.8 |
| 20260504203050 | 79 | 302 | 0.0 | 2.0 | 0.00 | 0.00 | 0.00 | 40 | 1014.9 |
| 20260504201549 | 79 | 209 | 0.0 | 3.0 | 0.00 | 0.00 | 0.00 | 40 | 1015.1 |
| 20260504194548 | 81 | 0 | 1.0 | 5.0 | 0.00 | 0.00 | 0.00 | 34 | 1015.2 |
| 20260504193055 | 81 | 278 | 0.0 | 4.0 | 0.00 | 0.00 | 0.00 | 35 | 1015.6 |
| 20260504191605 | 81 | 352 | 1.0 | 3.0 | 0.00 | 0.00 | 0.00 | 35 | 1015.8 |
| 20260504190047 | 81 | 128 | 0.0 | 3.0 | 0.00 | 0.00 | 0.00 | 37 | 1016.1 |
| 20260504184543 | 80 | 0 | 0.0 | 2.0 | 0.00 | 0.00 | 0.00 | 35 | 1016.3 |
| 20260504183054 | 80 | 175 | 0.0 | 2.0 | 0.00 | 0.00 | 0.00 | 36 | 1016.5 |
| 20260504181546 | 79 | 90 | 1.0 | 3.0 | 0.00 | 0.00 | 0.00 | 35 | 1016.6 |
| 20260504180047 | 77 | 96 | 1.0 | 3.0 | 0.00 | 0.00 | 0.00 | 38 | 1016.7 |
| 20260504174551 | 77 | 48 | 2.0 | 4.0 | 0.00 | 0.00 | 0.00 | 37 | 1016.8 |
| 20260504173046 | 78 | 112 | 0.0 | 2.0 | 0.00 | 0.00 | 0.00 | 44 | 1016.8 |
| 20260504171549 | 76 | 265 | 1.0 | 3.0 | 0.00 | 0.00 | 0.00 | 39 | 1017.1 |
| 20260504120109 | 44 | 0 | 0.0 | 0.0 | 0.00 | 0.00 | 0.00 | 95 | 1018.3 |
| 20260504081552 | 45 | 0 | 0.0 | 0.0 | 0.00 | 0.00 | 0.00 | 93 | 1017.8 |
| 20260504044552 | 49 | 0 | 0.0 | 0.0 | 0.00 | 0.00 | 0.00 | 86 | 1018.7 |
| 20260504043110 | 49 | 0 | 0.0 | 0.0 | 0.00 | 0.00 | 0.00 | 85 | 1018.7 |
| 20260504041549 | 49 | 0 | 0.0 | 0.0 | 0.00 | 0.00 | 0.00 | 86 | 1018.8 |
| 20260504040049 | 50 | 0 | 0.0 | 0.0 | 0.00 | 0.00 | 0.00 | 86 | 1018.8 |
| 20260504034552 | 50 | 0 | 0.0 | 0.0 | 0.00 | 0.00 | 0.00 | 85 | 1018.9 |
| 20260504033059 | 51 | 0 | 0.0 | 0.0 | 0.00 | 0.00 | 0.00 | 82 | 1018.9 |
| 20260504031552 | 51 | 0 | 0.0 | 0.0 | 0.00 | 0.00 | 0.00 | 82 | 1018.7 |
| 20260504024547 | 52 | 0 | 0.0 | 0.0 | 0.00 | 0.00 | 0.00 | 78 | 1018.6 |
| 20260504023048 | 53 | 0 | 0.0 | 0.0 | 0.00 | 0.00 | 0.00 | 77 | 1018.5 |
| 20260504021549 | 53 | 0 | 0.0 | 0.0 | 0.00 | 0.00 | 0.00 | 74 | 1018.4 |
| 20260504020050 | 54 | 278 | 0.0 | 0.0 | 0.00 | 0.00 | 0.00 | 71 | 1018.1 |
| 20260504014549 | 55 | 0 | 0.0 | 0.0 | 0.00 | 0.00 | 0.00 | 69 | 1017.7 |
| 20260504013053 | 56 | 0 | 0.0 | 0.0 | 0.00 | 0.00 | 0.00 | 66 | 1017.6 |
| 20260504011552 | 57 | 0 | 0.0 | 0.0 | 0.00 | 0.00 | 0.00 | 65 | 1017.4 |
| 20260504010056 | 58 | 0 | 0.0 | 0.0 | 0.00 | 0.00 | 0.00 | 63 | 1017.4 |
| 20260504004549 | 59 | 0 | 0.0 | 0.0 | 0.00 | 0.00 | 0.00 | 61 | 1017.2 |
| 20260504003049 | 60 | 0 | 0.0 | 0.0 | 0.00 | 0.00 | 0.00 | 58 | 1017.1 |
| 20260504001543 | 62 | 0 | 0.0 | 0.0 | 0.00 | 0.00 | 0.00 | 56 | 1017.1 |
| 20260504000059 | 63 | 0 | 0.0 | 0.0 | 0.00 | 0.00 | 0.00 | 54 | 1017.0 |
| 20260503234552 | 64 | 0 | 0.0 | 0.0 | 0.00 | 0.00 | 0.00 | 52 | 1016.9 |
| 20260503233044 | 65 | 0 | 0.0 | 1.0 | 0.00 | 0.00 | 0.00 | 49 | 1017.1 |
| 20260503231543 | 66 | 0 | 0.0 | 0.0 | 0.00 | 0.00 | 0.00 | 50 | 1017.0 |
| 20260503230058 | 67 | 0 | 0.0 | 1.0 | 0.00 | 0.00 | 0.00 | 46 | 1017.1 |
| 20260503224546 | 69 | 0 | 0.0 | 1.0 | 0.00 | 0.00 | 0.00 | 45 | 1017.0 |
| 20260503223102 | 71 | 0 | 0.0 | 1.0 | 0.00 | 0.00 | 0.00 | 45 | 1016.9 |
| 20260503221551 | 75 | 187 | 0.0 | 2.0 | 0.00 | 0.00 | 0.00 | 35 | 1017.1 |
| 20260503220051 | 76 | 165 | 0.0 | 2.0 | 0.00 | 0.00 | 0.00 | 37 | 1017.3 |
| 20260503214555 | 76 | 277 | 0.0 | 1.0 | 0.00 | 0.00 | 0.00 | 37 | 1017.2 |
| 20260503213046 | 76 | 82 | 0.0 | 1.0 | 0.00 | 0.00 | 0.00 | 34 | 1017.3 |
| 20260503211541 | 76 | 111 | 1.0 | 2.0 | 0.00 | 0.00 | 0.00 | 35 | 1017.4 |
| 20260503210047 | 74 | 0 | 1.0 | 4.0 | 0.00 | 0.00 | 0.00 | 36 | 1017.5 |